Location: 5810 Zion Rd, Cleves, OH 45002, USA
(39.1922°N, 84.7113°W)
Time: 11:56:15
(UTC-05:00)

Courier 1B Rocket - Pass Details

Date: 06 December 2019
Orbit: 920 x 1202 km, 28.2° (Epoch: 21 January)

Event Time Altitude Azimuth Distance (km) Brightness Sun altitude
Rises 08:46:47 0° 233° (SW) 3,669 7.9 9.3°
Reaches altitude 10° 08:49:57 10° 221° (SW) 2,682 7.4 9.7°
Maximum altitude 08:55:02 25° 168° (SSE) 1,785 7.4 10.5°
Drops below altitude 10° 08:59:59 10° 115° (ESE) 2,608 9.1 11.2°
Sets 09:03:01 0° 103° (ESE) 3,547 9.1 11.7°
